Find Starlink 31478

NORAD ID: 59188 Int'l Des: 2024-045 Owner: SPXS Country: US Constellation: starlink operational
LEOCIRCULAR

Current View

Loading 3D Globe...

About Starlink 31478

Starlink 31478 (NORAD 59188) is a starlink constellation satellite (v2 mini) launched Mar 11, 2024 by SPXS of US. It operates in LEO, CIRCULAR orbit with a mass of 730.00 kg.

Upcoming Passes

Passes for default location (London). Set your location on the main map for personalized predictions.

Altitude History

Loading altitude history...

Two-Line Element Set

1 59188U 24045L 26237.98611682 .00000738 00000-0 36372-4 0 9990
2 59188 43.0033 216.3902 0002125 287.2238 72.8381 15.27576247139054
Epoch: Aug 25, 2026 • Age: 18 hours

Current Status

Altitude 494.8 km
Apogee / Perigee N/A
Velocity 7.62 km/s
Sub-Earth Point -42.68°S, 114.52°W
Launch Date Mar 11, 2024
Age 2.4 years
Type internet

Technical Details

Classification Payload
Mass 730.00 kg
Dry Mass 700.00 kg
Total Mass 730.00 kg
Length 0.30 m
Diameter 4.10 m
Span 29.00 m
Shape Box + pan
Manufacturer SPXS
Bus Type Starlink V2M
Phase Status In Orbit
Owner/State SPXS/US

Most Searched